Previsão horária em Abernethy

Hoje, 18 Maio, Terça-feira

Tempo Temperatura Precipitação Vento Pressão Humidade
00:00 +21°C° 0 mm 9 m/s 703 mmHg 48%
01:00 +20°C° 0 mm 8 m/s 703 mmHg 53%
02:00 +18°C° 0 mm 8 m/s 703 mmHg 58%
03:00 +17°C° 0 mm 8 m/s 703 mmHg 62%
04:00 +16°C° 0 mm 7 m/s 703 mmHg 66%
05:00 +15°C° 0 mm 7 m/s 703 mmHg 70%
06:00 +17°C° 0 mm 7 m/s 703 mmHg 65%
07:00 +20°C° 0 mm 7 m/s 703 mmHg 59%
08:00 +21°C° 0 mm 8 m/s 703 mmHg 53%
09:00 +23°C° 0 mm 7 m/s 702 mmHg 47%
10:00 +26°C° 0 mm 7 m/s 702 mmHg 41%
11:00 +28°C° 0 mm 7 m/s 702 mmHg 35%
12:00 +28°C° 0 mm 7 m/s 702 mmHg 33%
13:00 +29°C° 0 mm 7 m/s 701 mmHg 31%
14:00 +30°C° 0 mm 7 m/s 701 mmHg 29%
15:00 +30°C° 0 mm 7 m/s 700 mmHg 29%
16:00 +31°C° 0 mm 8 m/s 699 mmHg 30%
17:00 +31°C° 0 mm 8 m/s 698 mmHg 31%
18:00 +26°C° 5.2 mm 6 m/s 699 mmHg 49%
19:00 +21°C° 5.2 mm 5 m/s 699 mmHg 67%
20:00 +17°C° 5.2 mm 3 m/s 700 mmHg 84%
21:00 +16°C° 0.1 mm 5 m/s 701 mmHg 71%
22:00 +16°C° 0.1 mm 6 m/s 701 mmHg 57%
23:00 +16°C° 0.1 mm 7 m/s 702 mmHg 43%

Amanhã, 19 Maio, Quarta-feira

Tempo Temperatura Precipitação Vento Pressão Humidade
00:00 +15°C° 0 mm 7 m/s 702 mmHg 44%
01:00 +13°C° 0 mm 6 m/s 702 mmHg 45%
02:00 +11°C° 0 mm 6 m/s 703 mmHg 46%
03:00 +11°C° 0 mm 6 m/s 703 mmHg 43%
04:00 +10°C° 0 mm 7 m/s 703 mmHg 40%
05:00 +10°C° 0 mm 7 m/s 704 mmHg 37%
06:00 +10°C° 0 mm 8 m/s 704 mmHg 39%
07:00 +10°C° 0 mm 9 m/s 705 mmHg 41%
08:00 +9°C° 0 mm 10 m/s 706 mmHg 43%
09:00 +11°C° 0 mm 10 m/s 706 mmHg 41%
10:00 +12°C° 0 mm 10 m/s 706 mmHg 39%
11:00 +13°C° 0 mm 10 m/s 707 mmHg 37%
12:00 +13°C° 0 mm 9 m/s 707 mmHg 36%
13:00 +15°C° 0 mm 9 m/s 707 mmHg 35%
14:00 +15°C° 0 mm 9 m/s 708 mmHg 33%
15:00 +13°C° 0 mm 8 m/s 708 mmHg 35%
16:00 +14°C° 0 mm 7 m/s 708 mmHg 36%
17:00 +12°C° 0 mm 7 m/s 709 mmHg 37%
18:00 +11°C° 0 mm 6 m/s 709 mmHg 40%
19:00 +9°C° 0 mm 5 m/s 710 mmHg 44%
20:00 +8°C° 0 mm 5 m/s 710 mmHg 47%
21:00 +7°C° 0 mm 5 m/s 711 mmHg 48%
22:00 +6°C° 0 mm 5 m/s 711 mmHg 49%
23:00 +4°C° 0 mm 6 m/s 712 mmHg 50%

Depois de amanhã, 20 Maio, Quinta-feira

Tempo Temperatura Precipitação Vento Pressão Humidade
00:00 +3°C° 0 mm 6 m/s 712 mmHg 52%
01:00 +2°C° 0 mm 5 m/s 713 mmHg 54%
02:00 +1°C° 0 mm 5 m/s 713 mmHg 56%
03:00 +1°C° 0 mm 5 m/s 713 mmHg 59%
04:00 0°C° 0 mm 5 m/s 713 mmHg 62%
05:00 -1°C° 0 mm 5 m/s 714 mmHg 65%
06:00 -1°C° 1.3 mm 5 m/s 714 mmHg 73%
07:00 -2°C° 1.3 mm 5 m/s 714 mmHg 81%
08:00 -2°C° 1.3 mm 5 m/s 714 mmHg 89%
09:00 -2°C° 1.4 mm 5 m/s 714 mmHg 90%
10:00 -2°C° 1.4 mm 5 m/s 715 mmHg 92%
11:00 -2°C° 1.4 mm 5 m/s 715 mmHg 93%
12:00 -2°C° 0.1 mm 5 m/s 715 mmHg 93%
13:00 -2°C° 0.1 mm 5 m/s 715 mmHg 93%
14:00 -1°C° 0.1 mm 5 m/s 715 mmHg 94%
15:00 -1°C° 0.6 mm 5 m/s 715 mmHg 95%
16:00 -1°C° 0.6 mm 5 m/s 714 mmHg 96%
17:00 -2°C° 0.6 mm 6 m/s 714 mmHg 97%
18:00 -1°C° 0 mm 5 m/s 714 mmHg 95%
19:00 -1°C° 0 mm 5 m/s 715 mmHg 93%
20:00 -1°C° 0 mm 5 m/s 715 mmHg 91%
21:00 -1°C° 0 mm 5 m/s 715 mmHg 89%
22:00 -1°C° 0 mm 5 m/s 715 mmHg 87%
23:00 -1°C° 0 mm 4 m/s 715 mmHg 85%

21 Maio, Sexta-feira

Tempo Temperatura Precipitação Vento Pressão Humidade
00:00 -1°C° 0.9 mm 5 m/s 715 mmHg 85%
01:00 -1°C° 0.9 mm 5 m/s 715 mmHg 85%
02:00 -1°C° 0.9 mm 5 m/s 714 mmHg 85%
03:00 -2°C° 0.4 mm 6 m/s 714 mmHg 86%
04:00 -3°C° 0.4 mm 6 m/s 714 mmHg 86%
05:00 -3°C° 0.4 mm 6 m/s 714 mmHg 87%
06:00 -3°C° 0.2 mm 6 m/s 714 mmHg 89%
07:00 -3°C° 0.2 mm 6 m/s 714 mmHg 92%
08:00 -3°C° 0.2 mm 6 m/s 714 mmHg 95%
09:00 -2°C° 0.5 mm 6 m/s 714 mmHg 96%
10:00 -1°C° 0.5 mm 5 m/s 715 mmHg 97%
11:00 -1°C° 0.5 mm 5 m/s 715 mmHg 97%
12:00 -2°C° 0.1 mm 6 m/s 715 mmHg 97%
13:00 -3°C° 0.1 mm 6 m/s 715 mmHg 97%
14:00 -3°C° 0.1 mm 6 m/s 715 mmHg 97%
15:00 -3°C° 0.6 mm 6 m/s 714 mmHg 97%
16:00 -3°C° 0.6 mm 6 m/s 714 mmHg 97%
17:00 -2°C° 0.6 mm 5 m/s 714 mmHg 97%
18:00 -1°C° 2.1 mm 5 m/s 714 mmHg 98%
19:00 -1°C° 2.1 mm 5 m/s 714 mmHg 98%
20:00 -1°C° 2.1 mm 4 m/s 715 mmHg 99%
21:00 -1°C° 0.4 mm 4 m/s 714 mmHg 99%
22:00 -1°C° 0.4 mm 4 m/s 714 mmHg 99%
23:00 -1°C° 0.4 mm 4 m/s 714 mmHg 99%

22 Maio, Sábado

Tempo Temperatura Precipitação Vento Pressão Humidade
00:00 -1°C° 0.2 mm 4 m/s 714 mmHg 99%
01:00 0°C° 0.2 mm 3 m/s 714 mmHg 99%
02:00 0°C° 0.2 mm 3 m/s 714 mmHg 99%
03:00 0°C° 0 mm 3 m/s 714 mmHg 99%
04:00 0°C° 0 mm 3 m/s 714 mmHg 99%
05:00 0°C° 0 mm 3 m/s 714 mmHg 99%
06:00 0°C° 0 mm 3 m/s 714 mmHg 99%
07:00 0°C° 0 mm 3 m/s 714 mmHg 99%
08:00 0°C° 0 mm 3 m/s 715 mmHg 99%
09:00 +1°C° 0 mm 3 m/s 715 mmHg 99%
10:00 +2°C° 0 mm 2 m/s 715 mmHg 99%
11:00 +3°C° 0 mm 2 m/s 715 mmHg 99%
12:00 +3°C° 0 mm 2 m/s 715 mmHg 99%
13:00 +3°C° 0 mm 2 m/s 715 mmHg 99%
14:00 +4°C° 0 mm 2 m/s 715 mmHg 98%
15:00 +5°C° 0 mm 1 m/s 715 mmHg 98%
16:00 +5°C° 0 mm 1 m/s 715 mmHg 98%
17:00 +5°C° 0 mm 1 m/s 715 mmHg 98%
18:00 +5°C° 0 mm 1 m/s 715 mmHg 98%
19:00 +5°C° 0 mm 1 m/s 715 mmHg 98%
20:00 +4°C° 0 mm 2 m/s 715 mmHg 99%
21:00 +4°C° 0 mm 2 m/s 715 mmHg 99%
22:00 +5°C° 0 mm 1 m/s 715 mmHg 99%
23:00 +5°C° 0 mm 1 m/s 714 mmHg 99%

23 Maio, Domingo

Tempo Temperatura Precipitação Vento Pressão Humidade
00:00 +5°C° 0 mm 1 m/s 714 mmHg 99%
01:00 +6°C° 0 mm 1 m/s 714 mmHg 99%
02:00 +6°C° 0 mm 1 m/s 714 mmHg 98%
03:00 +6°C° 0 mm 1 m/s 714 mmHg 98%
04:00 +5°C° 0 mm 2 m/s 713 mmHg 98%
05:00 +6°C° 0 mm 2 m/s 713 mmHg 98%
06:00 +7°C° 0 mm 3 m/s 713 mmHg 94%
07:00 +8°C° 0 mm 3 m/s 712 mmHg 91%
08:00 +9°C° 0 mm 3 m/s 712 mmHg 88%
09:00 +10°C° 0 mm 4 m/s 712 mmHg 86%
10:00 +11°C° 0 mm 4 m/s 711 mmHg 84%
11:00 +12°C° 0 mm 4 m/s 710 mmHg 82%
12:00 +12°C° 0 mm 4 m/s 710 mmHg 82%
13:00 +13°C° 0 mm 4 m/s 709 mmHg 82%
14:00 +13°C° 0 mm 5 m/s 709 mmHg 83%
15:00 +13°C° 0.1 mm 5 m/s 708 mmHg 85%
16:00 +12°C° 0.1 mm 5 m/s 707 mmHg 87%
17:00 +12°C° 0.1 mm 5 m/s 706 mmHg 89%
18:00 +11°C° 0.4 mm 6 m/s 705 mmHg 89%
19:00 +11°C° 0.4 mm 6 m/s 704 mmHg 90%
20:00 +11°C° 0.4 mm 7 m/s 703 mmHg 91%
21:00 +11°C° 0.4 mm 7 m/s 702 mmHg 93%
22:00 +11°C° 0.4 mm 7 m/s 701 mmHg 95%
23:00 +11°C° 0.4 mm 8 m/s 699 mmHg 97%
Mostrar mais

Necessitamos do seu Consentimento

A Meteoprog e os seus Fornecedores de Serviços podem armazenar e aceder a dados pessoais como cookies, identificadores do dispositivo ou outras tecnologias semelhantes existentes no seu dispositivo e processar estes dados para personalizar conteúdos e anúncios, assim como funcionalidades nas redes sociais e análise de tráfego.

  • Armazenar e/ou aceder a informações no seu dispositivo

    Os cookies, identificadores do dispositivo ou outras informações podem ser armazenados ou acedidos no seu dispositivo, para os fins acima indicados.

  • Anúncios e conteúdos personalizados, medição de anúncios e conteúdos, dados sobre o público-alvo e desenvolvimento de produtos

    Os anúncios e os conteúdos podem ser personalizados com base num perfil. Podem ser adicionados dados adicionais para uma maior personalização dos anúncios e dos conteúdos. A eficácia dos anúncios e dos conteúdos pode ser medida. Podem ser obtidas informações sobre o público que visualizou os anúncios e os conteúdos. Estes dados podem ser usados para desenvolver ou melhorar sistemas, softwares ou a experiência do utilizador.

Ao clicar em "Eu concordo”, permitirá o uso de cookies, identificadores do dispositivo e web beacons mencionados ou outras tecnologias semelhantes. As configurações do navegador do seu dispositivo podem ser alteradas.

Para certos fins, podem ser invocados interesses legítimos ao invés de consentimento. Pode ler mais informação sobre este assunto na nossa Política de Privacidade e Cookies.